Location: Bílinka
(49.3579°N, 14.3767°E)
Time: 00:48:44
(UTC+00:00)

SL-16 R/B - Pass Details

Date: 28 January 2023
Orbit: 842 x 846 km, 71.0° (Epoch: 30 March)

Event Time Altitude Azimuth Distance (km) Brightness Sun altitude
Rises 19:58:58 0° 244° (WSW) 3,394 5.8 -39.9°
Reaches altitude 10° 20:01:45 10° 256° (WSW) 2,463 5.1 -40.3°
Enters shadow 20:04:21 22° 279° (W) 1,769 4.3 -40.7°
